Location: Cuguron
(43.0994°N, 0.5363°E)
Time: 21:15:15
(UTC+00:00)

Cosmos 1513 Rocket - Pass Details

Date: 15 May 2026
Orbit: 938 x 1008 km, 82.9° (Epoch: 10 June)

Event Time Altitude Azimuth Distance (km) Brightness Sun altitude
Exits shadow 21:15:00 17° 184° (S) 2,239 6.0 -17.9°
Maximum altitude 21:19:57 87° 96° (E) 971 4.4 -18.5°
Drops below altitude 10° 21:26:06 10° 9° (N) 2,687 7.4 -19.2°
Sets 21:28:35 0° 9° (N) 3,629 8.2 -19.4°
